Simultaneous Nadir Overpasses (SNOs) Predictions

Prediction of SNOs between FY3D and AQUA Satellite Orbit:

Table of predicted SNOs for the next 14.0 days since TLE Epoch: 8/21/2021
Index Date (FY3D) Time (FY3D) Lat,Lon (FY3D) SZA (FY3D ) Date (AQUA) Time (AQUA) Lat,Lon (AQUA) SZA (AQUA ) Distance(km) Time Diff (sec)
1 08/21/2021 12:27:43 -63.74, 179.84 128.15 08/21/2021 12:28:27 -63.74, 179.84 128.14 0.07 44
2 08/21/2021 13:16:43 57.81, -8.39 46.37 08/21/2021 13:16:13 57.81, -8.37 46.35 1.22 30
3 08/24/2021 04:44:10 -64.23, -64.66 126.78 08/24/2021 04:45:04 -64.23, -64.70 126.76 1.96 54
4 08/24/2021 05:33:08 58.19, 107.31 47.64 08/24/2021 05:32:48 58.20, 107.28 47.63 1.95 20
5 08/26/2021 21:00:55 -65.70, 49.83 124.44 08/26/2021 21:01:58 -65.69, 49.85 124.43 0.68 63
6 08/26/2021 21:49:55 59.82,-137.84 50.07 08/26/2021 21:49:44 59.82,-137.85 50.06 1.09 11
7 08/29/2021 13:17:18 -65.96, 165.50 123.23 08/29/2021 13:18:31 -65.97, 165.46 123.22 1.88 73
8 08/29/2021 14:06:38 61.21, -22.91 52.31 08/29/2021 14:06:36 61.21, -22.92 52.31 0.42 2
9 09/01/2021 05:39:43 -81.21,-144.06 102.64 09/01/2021 05:40:56 -81.75,-143.43 102.48 61.41 73
10 09/01/2021 06:23:17 62.43, 92.06 54.42 09/01/2021 06:23:24 62.43, 92.06 54.42 0.04 7
11 09/01/2021 07:11:52 -55.23, -95.75 132.09 09/01/2021 07:10:45 -55.23, -95.75 132.14 0.03 67
12 09/03/2021 22:39:54 63.47,-152.89 56.39 09/03/2021 22:40:10 63.47,-152.88 56.40 0.27 16



Historial Predications of SNOs between FY3D and AQUA
